Regional Weather Roundup
Issued by NWS Grand Forks, ND

Home | Current Version | Previous Version | Graphics & Text | Print | Product List | Glossary On
Versions: 1 2 3 4 5 6 7 8 9 10 11 12 13 14 15 16 17 18 19 20 21 22 23 24 25 26 27 28 29 30 31 32 33 34 35 36 37 38 39 40 41 42 43 44 45 46 47 48 49 50
000
ASUS43 KFGF 190631
RWRFGF
PRAIRIE TO PINES  WEATHER ROUNDUP
NATIONAL WEATHER SERVICE EASTERN NORTH DAKOTA/GRAND FORKS ND
100 AM CDT SAT APR 19 2014

 **SATELLITE DATA USED TO AUGMENT SKY COVER AT AUTOMATED STATIONS**
 *****  WEATHER ACROSS EASTERN NORTH DAKOTA  *****

CITY           SKY/WX    TMP DP  RH WIND       PRES   REMARKS
GRAND FORKS    LGT RAIN  43  32  65 SE28G40   29.79F
6HR MIN TEMP:  43; 6HR MAX TEMP:  48; 6HR PCP: TRACE;

GRAND FRKS AFB FAIR      43  32  63 S25G32    29.78F
GRAND FRKS NWS   N/A     45 N/A N/A SE28        N/A
DEVILS LAKE    FAIR      41  28  60 SE14G26   29.72R
6HR MIN TEMP:  39; 6HR MAX TEMP:  45;

FARGO          FAIR      48  30  49 SE39G54   29.80F
WAHPETON ARPT  FAIR      45  30  57 SE24G33   29.87S
$$

 ***** WEATHER ACROSS CENTRAL AND WESTERN NORTH DAKOTA  *****

CITY           SKY/WX    TMP DP  RH WIND       PRES   REMARKS
BISMARCK       PTCLDY    45  37  73 NW5       29.65R
6HR MIN TEMP:  45; 6HR MAX TEMP:  56;

MINOT          FAIR      38  34  85 SE5       29.68S
6HR MIN TEMP:  36; 6HR MAX TEMP:  50; 6HR PCP:  0.15;

JAMESTOWN      FAIR      46  37  71 SE20G30   29.64F
6HR MIN TEMP:  44; 6HR MAX TEMP:  47;

MINOT AFB      FAIR      36  36 100 S6        29.68S
GARRISON         N/A     37  35  92 VRB5      29.69R
WILLISTON      LGT RAIN  46  37  71 W8        29.70F
6HR MIN TEMP:  35; 6HR MAX TEMP:  55; 6HR PCP:  0.10;

DICKINSON      CLEAR     41  35  79 W18       29.77R
6HR MIN TEMP:  40; 6HR MAX TEMP:  61; 6HR PCP: TRACE;

HETTINGER      CLEAR     43  35  73 NW29G40   29.81R
6HR MIN TEMP:  39; 6HR MAX TEMP:  64;

$$

 *****  OTHER AIRPORT OBSERVATIONS IN OUR AREA  *****

CITY           SKY/WX    TMP DP  RH WIND       PRES   REMARKS
WALHALLA       FAIR      39  34  81 SE18      29.80F
GRAFTON AIRPOR MIX PCPN  39  32  75 SE21G28   29.82F
VALLEY CITY AR FAIR      45  36  70 S26G38    29.69F
CANDO          MOCLDY    39  32  75 SE13      29.73F
CAVALIER APRT  MOCLDY    39  32  75 SE13G25   29.81F
GWINNER        PTCLDY    46  36  66 SE26G33   29.77F
SHEYENNE NWR     N/A     47  34  61 SE25      29.95
ROLLA          CLOUDY    36  32  87 SE12      29.74F
 ***** THE ABOVE OBSERVATIONS ARE NON NWS ARE NOT QUALITY
       CONTROLLED AND MAY MIS-REPORT RAIN FOR SNOW...
$$

  *****  WEATHER ACROSS NORTHERN MINNESOTA  *****

CITY           SKY/WX    TMP DP  RH WIND       PRES   REMARKS
FLAG ISLAND    LGT SNOW  34  30  86 SE10G22   30.09F
WARROAD        CLOUDY    37  27  65 E20G25    30.03F
ROSEAU         CLOUDY    41  23  48 SE21G30   29.98F
HALLOCK        DRIZZLE   41  30  65 SE25      29.85F
THF RVR FALLS  CLOUDY    37  28  70 E28G33    29.88F
6HR MIN TEMP:  37; 6HR MAX TEMP:  46; 6HR PCP:  0.02;

BAUDETTE       CLOUDY    36  26  67 SE22G31   30.10F
6HR MIN TEMP:  36; 6HR MAX TEMP:  45; 6HR PCP: TRACE;

WASKISH        CLOUDY    39  21  48 E18G28    30.07F
CROOKSTON        N/A     45  30  57 SE35G40   29.82F
$$
  *****  WEATHER ACROSS CENTRAL AND WEST MINNESOTA  *****

CITY           SKY/WX    TMP DP  RH WIND       PRES   REMARKS
FOSSTON        DRIZZLE   39  28  65 SE22G35   29.92F
BEMIDJI        LGT RAIN  38  22  53 SE21G31   30.04F
PARK RAPIDS    CLOUDY    42  22  44 SE20G30   30.04S
6HR MIN TEMP:  40; 6HR MAX TEMP:  44;

ELBOW LAKE     FAIR      43  31  62 SE22G31   29.94R
6HR MIN TEMP:  42; 6HR MAX TEMP:  45;

WADENA         FAIR      41  27  56 SE21G32   30.02S
DETROIT LAKES  FAIR      43  28  56 SE31G38   29.94S
MOORHEAD       FAIR      46  32  57 SE29G41   29.80F
FERGUS FALLS   FAIR      46  27  46 SE35G44   29.89F
MORRIS MN      FAIR      45  34  65 SE31G39   29.93S
STAPLES        CLOUDY    43  23  45 SE16G24   30.05F
$$
  *****  WEATHER ELSEWHERE ACROSS MINNESOTA  *****

CITY           SKY/WX    TMP DP  RH WIND       PRES   REMARKS
DULUTH         FAIR      31  22  69 E17       30.26F WCI  19
6HR MIN TEMP:  31; 6HR MAX TEMP:  36;

INTRNTL FALLS  CLOUDY    37  18  46 SE14      30.20F
6HR MIN TEMP:  36; 6HR MAX TEMP:  43;

ELY            FAIR      32  19  59 SE9       30.29F WCI  24
CLOQUET        FAIR      32  21  64 E9        30.24F WCI  24
WHEATON        FAIR      46  37  71 SE31G40   29.86F
BRAINERD       CLOUDY    45  22  40 SE14G23   30.12F
6HR MIN TEMP:  45; 6HR MAX TEMP:  47;

HIBBING        CLOUDY    34  19  54 SE12      30.23F
6HR MIN TEMP:  34; 6HR MAX TEMP:  42;

ALEXANDRIA     FAIR      41  28  60 SE21G31   30.01F
6HR MIN TEMP:  40; 6HR MAX TEMP:  44;

SAINT CLOUD    FAIR      43  26  51 SE14G21   30.11F
6HR MIN TEMP:  41; 6HR MAX TEMP:  45;

MINNEAPOLIS    MOCLDY    44  27  51 E15       30.18F
6HR MIN TEMP:  44; 6HR MAX TEMP:  51;

$$

  *****  WEATHER ACROSS SOUTH DAKOTA  *****

CITY           SKY/WX    TMP DP  RH WIND       PRES   REMARKS
SIOUX FALLS    FAIR      55  39  54 S17G26    29.92F
6HR MIN TEMP:  55; 6HR MAX TEMP:  63;

BROOKINGS      NOT AVBL
WATERTOWN      FAIR      52  37  56 S24G35    29.85R
6HR MIN TEMP:  51; 6HR MAX TEMP:  60;

HURON          CLOUDY    59  40  49 S16G22    29.80R
6HR MIN TEMP:  59; 6HR MAX TEMP:  68;

SISSETON         N/A     45  36  70 S28G35    29.82F
ABERDEEN       LGT RAIN  55  42  61 S17G31    29.72R
6HR MIN TEMP:  55; 6HR MAX TEMP:  66; 6HR PCP: TRACE;

MITCHELL       CLOUDY    60  42  51 S28G35    29.80F
PIERRE         CLOUDY    67  43  41 S9        29.64R
6HR MIN TEMP:  65; 6HR MAX TEMP:  75;

MOBRIDGE       MOCLDY    53  39  59 NW15      29.65R
RAPID CITY     CLOUDY    53  39  59 N26G35    29.78R
6HR MIN TEMP:  52; 6HR MAX TEMP:  75;

$$

  *****  SOME WEATHER IN NEARBY STATES *****

CITY           SKY/WX    TMP DP  RH WIND       PRES   REMARKS
GLASGOW MT     CLEAR     36  30  79 W10       29.74S
6HR MIN TEMP:  36; 6HR MAX TEMP:  52; 6HR PCP:  0.13;

GREAT FALLS MT CLEAR     36  19  50 SW14      29.87R
6HR MIN TEMP:  34; 6HR MAX TEMP:  49;

CHEYENNE WY    CLOUDY    52  32  46 NW6       29.95S
6HR MIN TEMP:  52; 6HR MAX TEMP:  70;

SCOTTSBLUFF NE CLOUDY    60  35  39 W7        29.84R
6HR MIN TEMP:  60; 6HR MAX TEMP:  81;

OMAHA NE       FAIR      56  39  53 S14       30.09S
6HR MIN TEMP:  54; 6HR MAX TEMP:  68;

DES MOINES IA  FAIR      53  34  48 SE10      30.18S
6HR MIN TEMP:  53; 6HR MAX TEMP:  64;

DAVENPORT IA   FAIR      42  35  76 E18       30.33R
6HR MIN TEMP:  42; 6HR MAX TEMP:  60;

CHICAGO IL     FAIR      38  25  59 NE7       30.37S
6HR MIN TEMP:  38; 6HR MAX TEMP:  42;

EAU CLAIRE WI  FAIR      42  23  46 E12       30.26F
6HR MIN TEMP:  42; 6HR MAX TEMP:  50;

LA CROSSE WI   FAIR      47  27  45 SE13      30.28R
6HR MIN TEMP:  45; 6HR MAX TEMP:  55;

$$

  *****  SOME NATIONAL WEATHER *****

CITY           SKY/WX    TMP DP  RH WIND       PRES   REMARKS
LA GUARDIA NY  MOCLDY    42  32  67 S7        30.26F
6HR MIN TEMP:  42; 6HR MAX TEMP:  43;

RALEIGH NC     LGT RAIN  48  45  87 NE9       30.19F
6HR MIN TEMP:  48; 6HR MAX TEMP:  57; 6HR PCP:  0.22;

ATLANTA GA     LGT RAIN  52  48  87 NE15      30.08F
6HR MIN TEMP:  50; 6HR MAX TEMP:  51; 6HR PCP:  0.45;

NEW ORLEANS LA FAIR      61  54  77 NE14G22   30.14F
6HR MIN TEMP:  60; 6HR MAX TEMP:  68;

OKLAHOMA CITY  MOCLDY    54  42  64 S5        30.14S
6HR MIN TEMP:  53; 6HR MAX TEMP:  73;

ALBUQUERQUE NM LGT RAIN  60  39  45 SE5       30.14S
6HR MIN TEMP:  59; 6HR MAX TEMP:  75; 6HR PCP: TRACE;

SALT LAKE CITY MOCLDY    50  47  89 SW5       29.97R
6HR MIN TEMP:  49; 6HR MAX TEMP:  62;

LOS ANGELES CA MOCLDY    62  53  72 S5        29.93S
6HR MIN TEMP:  61; 6HR MAX TEMP:  66;




USA.gov is the U.S. government's official web portal to all federal, state and local government web resources and services.